contact:dominique.lefevre@mio.osupytheas.fr, maurice.libes@osupytheas.fr, didier.mallarino@osupytheas.fr
Project:EMSO http://www.emso-fr.org/EMSO-France
Depth: 2436.0 m
Title:EMSO Ligure Ouest : Data MII capteur AQUADOPP
Date,Latitude,Longitude,X_East,Y_North,Z_Up,Amplitude_X,Amplitude_Y,Amplitude_Z,Batterie,SoundSpeed,Heading,Pitch,Roll,Pressure,TIS,Speed,Direction
, degrees North, degrees East, m.s-1, m.s-1,m.s-1, 1, 1, 1, Volt, m.s-1, degree, degree, degree, dbar, degree_C, m.s-1, degree
2021-08-29T00:04:03,42.805,6.029,0.041,-0.03,-0.037,100.0,106.0,100.0,13.4,1505.2,326.4,-0.8,1.8,2470.628,13.28,0.05,126.2
2021-08-29T00:07:03,42.805,6.029,0.033,-0.015,-0.031,100.0,105.0,100.0,13.4,1505.2,329.4,-0.8,1.8,2470.58,13.28,0.036,114.4
2021-08-29T00:10:03,42.805,6.029,0.091,-0.017,0.031,100.0,105.0,100.0,13.3,1505.2,329.7,-0.7,1.8,2470.59,13.28,0.092,100.6
2021-08-29T00:13:03,42.805,6.029,0.036,-0.008,-0.016,99.0,106.0,101.0,13.4,1505.2,327.3,-0.7,1.8,2470.595,13.28,0.036,102.5
2021-08-29T00:16:03,42.805,6.029,0.073,0.0,0.022,100.0,105.0,99.0,13.4,1505.2,325.8,-0.8,1.8,2470.602,13.28,0.072,90.0
2021-08-29T00:19:03,42.805,6.029,0.048,-0.012,0.007,100.0,105.0,101.0,13.4,1505.2,329.0,-0.7,1.8,2470.584,13.28,0.049,104.0
2021-08-29T00:22:03,42.805,6.029,0.055,-0.011,-0.005,100.0,105.0,101.0,13.4,1505.2,330.9,-0.7,1.9,2470.579,13.28,0.056,101.3
2021-08-29T00:25:03,42.805,6.029,0.068,0.006,0.024,101.0,102.0,100.0,13.3,1505.2,327.5,-0.8,1.8,2470.559,13.28,0.068,85.0
2021-08-29T00:28:03,42.805,6.029,0.063,-0.015,0.011,102.0,103.0,100.0,13.4,1505.2,329.6,-0.8,1.8,2470.561,13.28,0.064,103.4
2021-08-29T00:31:03,42.805,6.029,0.026,-0.018,-0.033,100.0,104.0,100.0,13.4,1505.2,329.7,-0.7,1.8,2470.545,13.28,0.031,124.7
2021-08-29T00:34:03,42.805,6.029,0.055,-0.004,-0.005,100.0,104.0,100.0,13.4,1505.2,329.5,-0.7,1.8,2470.602,13.28,0.055,94.2
2021-08-29T00:37:03,42.805,6.029,0.057,0.007,0.033,100.0,105.0,101.0,13.4,1505.2,328.8,-0.8,1.8,2470.547,13.28,0.057,83.0
2021-08-29T00:40:03,42.805,6.029,0.022,-0.004,-0.018,100.0,105.0,100.0,13.4,1505.2,325.1,-0.8,1.8,2470.537,13.28,0.022,100.3
2021-08-29T00:43:03,42.805,6.029,0.063,0.007,0.03,100.0,104.0,100.0,13.4,1505.2,326.0,-0.8,1.8,2470.58,13.28,0.063,83.7
2021-08-29T00:46:03,42.805,6.029,0.061,-0.009,0.005,101.0,104.0,100.0,13.4,1505.2,329.9,-0.7,1.8,2470.579,13.28,0.061,98.4
2021-08-29T00:49:03,42.805,6.029,0.036,0.009,0.027,101.0,103.0,100.0,13.3,1505.2,327.2,-0.8,1.8,2470.51,13.28,0.037,76.0
2021-08-29T00:52:03,42.805,6.029,0.033,-0.012,-0.024,100.0,105.0,100.0,13.3,1505.2,329.4,-0.7,1.8,2470.576,13.28,0.035,110.0
2021-08-29T00:55:03,42.805,6.029,0.058,-0.001,0.009,100.0,105.0,100.0,13.3,1505.2,325.1,-0.7,1.8,2470.533,13.28,0.058,91.0
2021-08-29T00:58:03,42.805,6.029,0.068,-0.015,-0.007,100.0,104.0,100.0,13.4,1505.2,325.4,-0.8,1.8,2470.568,13.28,0.069,102.4
2021-08-29T01:04:03,42.805,6.029,0.056,-0.005,-0.014,101.0,105.0,101.0,13.4,1505.2,328.5,-0.8,1.8,2470.571,13.28,0.056,95.1
2021-08-29T01:07:03,42.805,6.029,0.023,0.012,0.005,103.0,105.0,101.0,13.3,1505.2,325.8,-0.8,1.8,2470.58,13.28,0.025,62.4
2021-08-29T01:10:03,42.805,6.029,0.022,0.013,0.004,101.0,103.0,100.0,13.3,1505.2,329.3,-0.7,1.9,2470.577,13.28,0.025,59.4
2021-08-29T01:13:03,42.805,6.029,0.056,-0.008,0.026,102.0,102.0,100.0,13.4,1505.2,327.4,-0.7,1.8,2470.544,13.28,0.056,98.1
2021-08-29T01:16:03,42.805,6.029,0.053,0.006,0.037,100.0,104.0,100.0,13.4,1505.2,327.7,-0.7,1.8,2470.572,13.28,0.053,83.5
2021-08-29T01:19:03,42.805,6.029,0.067,-0.007,0.023,101.0,101.0,100.0,13.4,1505.2,327.3,-0.8,1.8,2470.536,13.28,0.067,96.0
2021-08-29T01:22:03,42.805,6.029,0.032,-0.009,-0.018,102.0,102.0,99.0,13.4,1505.2,326.1,-0.7,1.8,2470.563,13.28,0.033,105.7
2021-08-29T01:25:03,42.805,6.029,0.066,-0.013,0.012,100.0,105.0,100.0,13.4,1505.2,329.6,-0.8,1.8,2470.543,13.28,0.067,101.1
2021-08-29T01:28:03,42.805,6.029,0.058,-0.019,0.016,99.0,104.0,101.0,13.4,1505.2,329.2,-0.8,1.8,2470.519,13.28,0.061,108.1
2021-08-29T01:31:03,42.805,6.029,0.043,0.014,0.019,102.0,102.0,100.0,13.4,1505.2,330.5,-0.7,1.8,2470.545,13.28,0.045,72.0
2021-08-29T01:34:03,42.805,6.029,0.045,0.018,0.002,100.0,104.0,101.0,13.4,1505.2,326.3,-0.7,1.8,2470.511,13.28,0.048,68.2
2021-08-29T01:37:03,42.805,6.029,0.032,-0.006,-0.005,100.0,104.0,100.0,13.4,1505.2,329.1,-0.8,1.8,2470.508,13.28,0.032,100.6
2021-08-29T01:40:03,42.805,6.029,0.065,-0.013,0.001,101.0,103.0,101.0,13.4,1505.2,326.7,-0.8,1.8,2470.49,13.28,0.066,101.3
2021-08-29T01:43:03,42.805,6.029,0.087,-0.006,0.029,100.0,105.0,99.0,13.4,1505.2,329.3,-0.7,1.9,2470.565,13.28,0.087,93.9
2021-08-29T01:46:03,42.805,6.029,0.022,0.007,0.0,99.0,106.0,100.0,13.4,1505.2,330.5,-0.8,1.8,2470.545,13.28,0.023,72.4
2021-08-29T01:49:03,42.805,6.029,0.027,-0.014,-0.001,98.0,102.0,101.0,13.3,1505.2,329.7,-0.7,1.8,2470.55,13.28,0.03,117.4
2021-08-29T01:52:03,42.805,6.029,0.067,0.009,0.035,100.0,105.0,100.0,13.4,1505.2,326.4,-0.7,1.9,2470.532,13.28,0.067,82.3
2021-08-29T01:55:03,42.805,6.029,0.054,-0.01,0.025,100.0,105.0,100.0,13.4,1505.2,329.9,-0.7,1.8,2470.549,13.28,0.054,100.5
2021-08-29T01:58:03,42.805,6.029,0.049,-0.012,0.032,99.0,105.0,100.0,13.4,1505.2,330.9,-0.8,1.8,2470.523,13.28,0.05,103.8
2021-08-29T02:04:03,42.805,6.029,0.057,-0.007,0.023,101.0,103.0,100.0,13.4,1505.2,325.5,-0.8,1.8,2470.535,13.28,0.057,97.0
2021-08-29T02:07:03,42.805,6.029,0.032,0.008,0.018,100.0,104.0,101.0,13.4,1505.2,330.8,-0.7,1.8,2470.509,13.28,0.032,76.0
2021-08-29T02:10:03,42.805,6.029,0.069,0.01,0.027,100.0,104.0,100.0,13.4,1505.2,327.1,-0.7,1.8,2470.535,13.28,0.069,81.8
2021-08-29T02:13:03,42.805,6.029,0.051,-0.004,0.008,100.0,106.0,101.0,13.4,1505.2,330.7,-0.8,1.8,2470.523,13.28,0.051,94.5
2021-08-29T02:16:03,42.805,6.029,0.041,-0.008,-0.02,100.0,104.0,101.0,13.4,1505.2,325.0,-0.8,1.8,2470.521,13.28,0.041,101.0
2021-08-29T02:19:03,42.805,6.029,0.055,0.01,0.004,100.0,102.0,102.0,13.4,1505.2,328.2,-0.8,1.8,2470.504,13.28,0.055,79.7
2021-08-29T02:22:03,42.805,6.029,0.054,-0.01,0.009,101.0,104.0,101.0,13.3,1505.2,328.6,-0.7,1.8,2470.502,13.28,0.054,100.5
2021-08-29T02:25:03,42.805,6.029,0.009,0.021,-0.034,102.0,106.0,99.0,13.4,1505.2,328.5,-0.8,1.8,2470.527,13.28,0.022,23.2
2021-08-29T02:28:03,42.805,6.029,0.031,-0.023,-0.01,101.0,105.0,99.0,13.4,1505.2,328.8,-0.8,1.8,2470.528,13.28,0.038,126.6
2021-08-29T02:31:03,42.805,6.029,0.06,-0.003,0.022,100.0,104.0,100.0,13.4,1505.2,327.1,-0.7,1.8,2470.548,13.28,0.06,92.9
2021-08-29T02:34:03,42.805,6.029,0.058,-0.008,0.009,101.0,104.0,101.0,13.4,1505.2,326.6,-0.8,1.8,2470.52,13.28,0.058,97.8
2021-08-29T02:37:03,42.805,6.029,0.081,0.008,0.043,100.0,103.0,100.0,13.3,1505.2,328.2,-0.8,1.8,2470.526,13.28,0.081,84.4
2021-08-29T02:40:03,42.805,6.029,0.078,-0.004,0.047,100.0,105.0,101.0,13.4,1505.2,328.8,-0.8,1.8,2470.53,13.28,0.078,92.9
2021-08-29T02:43:03,42.805,6.029,0.063,-0.005,0.0,100.0,103.0,101.0,13.4,1505.2,325.8,-0.7,1.8,2470.508,13.28,0.063,94.5
2021-08-29T02:46:03,42.805,6.029,0.042,-0.015,-0.019,100.0,102.0,101.0,13.3,1505.2,326.4,-0.7,1.8,2470.483,13.28,0.044,109.6
2021-08-29T02:49:03,42.805,6.029,0.029,0.004,0.003,100.0,105.0,100.0,13.4,1505.2,325.7,-0.8,1.8,2470.514,13.28,0.029,82.2
2021-08-29T02:52:03,42.805,6.029,0.059,-0.016,0.009,101.0,104.0,99.0,13.4,1505.2,331.5,-0.8,1.8,2470.496,13.28,0.061,105.2
2021-08-29T02:55:03,42.805,6.029,0.089,-0.015,0.029,101.0,103.0,100.0,13.4,1505.2,328.3,-0.8,1.9,2470.502,13.28,0.09,99.6
2021-08-29T02:58:03,42.805,6.029,0.076,-0.022,-0.001,100.0,105.0,99.0,13.3,1505.2,326.1,-0.8,1.8,2470.501,13.28,0.079,106.1
2021-08-29T03:04:03,42.805,6.029,0.059,-0.015,-0.003,100.0,104.0,100.0,13.4,1505.2,328.1,-0.7,1.8,2470.534,13.28,0.06,104.3
2021-08-29T03:07:03,42.805,6.029,0.038,-0.005,0.009,100.0,104.0,101.0,13.4,1505.2,328.3,-0.7,1.8,2470.527,13.28,0.038,97.5
2021-08-29T03:10:03,42.805,6.029,0.055,-0.012,0.012,99.0,105.0,101.0,13.4,1505.2,329.0,-0.7,1.8,2470.505,13.28,0.056,102.3
2021-08-29T03:13:03,42.805,6.029,0.075,-0.024,0.03,100.0,102.0,100.0,13.4,1505.2,328.3,-0.8,1.8,2470.503,13.28,0.078,107.7
2021-08-29T03:16:03,42.805,6.029,0.037,0.009,0.022,101.0,103.0,100.0,13.4,1505.2,325.2,-0.7,1.8,2470.536,13.28,0.038,76.3
2021-08-29T03:19:03,42.805,6.029,0.071,-0.005,-0.014,99.0,103.0,100.0,13.4,1505.2,326.7,-0.7,1.8,2470.491,13.28,0.071,94.0
2021-08-29T03:22:03,42.805,6.029,0.066,-0.032,0.013,101.0,100.0,101.0,13.4,1505.2,330.7,-0.7,1.8,2470.509,13.28,0.073,115.9
2021-08-29T03:25:03,42.805,6.029,0.052,0.001,-0.024,101.0,103.0,100.0,13.4,1505.2,325.5,-0.8,1.8,2470.516,13.28,0.052,88.9
2021-08-29T03:28:03,42.805,6.029,0.063,-0.025,0.004,101.0,102.0,100.0,13.3,1505.2,329.2,-0.8,1.9,2470.488,13.28,0.067,111.6
2021-08-29T03:31:03,42.805,6.029,0.073,-0.013,-0.002,101.0,105.0,99.0,13.4,1505.2,329.4,-0.8,1.8,2470.486,13.28,0.074,100.1
2021-08-29T03:34:03,42.805,6.029,0.061,-0.024,0.004,100.0,103.0,101.0,13.4,1505.2,330.7,-0.7,1.8,2470.481,13.28,0.065,111.5
2021-08-29T03:37:03,42.805,6.029,0.068,-0.015,-0.004,100.0,105.0,100.0,13.4,1505.2,329.4,-0.8,1.8,2470.496,13.28,0.069,102.4
2021-08-29T03:40:03,42.805,6.029,0.039,-0.015,-0.007,100.0,102.0,100.0,13.4,1505.2,330.2,-0.7,1.8,2470.495,13.28,0.041,111.0
2021-08-29T03:43:03,42.805,6.029,0.029,-0.017,-0.015,101.0,102.0,101.0,13.4,1505.2,327.6,-0.7,1.8,2470.454,13.28,0.033,120.4
2021-08-29T03:46:03,42.805,6.029,0.078,-0.02,0.023,100.0,104.0,100.0,13.4,1505.2,325.9,-0.8,1.8,2470.497,13.28,0.08,104.4
2021-08-29T03:49:03,42.805,6.029,0.064,-0.024,-0.022,101.0,103.0,101.0,13.4,1505.2,324.8,-0.7,1.9,2470.475,13.28,0.068,110.6
2021-08-29T03:52:03,42.805,6.029,0.042,0.0,0.004,100.0,103.0,100.0,13.3,1505.2,329.7,-0.7,1.8,2470.471,13.28,0.042,90.0
2021-08-29T03:55:03,42.805,6.029,0.061,-0.031,-0.007,101.0,101.0,102.0,13.3,1505.2,327.7,-0.8,1.8,2470.488,13.28,0.068,116.9
2021-08-29T03:58:03,42.805,6.029,0.076,-0.028,-0.008,99.0,102.0,100.0,13.3,1505.2,325.2,-0.8,1.8,2470.447,13.28,0.08,110.2
2021-08-29T04:04:03,42.805,6.029,0.047,-0.007,0.022,102.0,103.0,100.0,13.4,1505.2,327.6,-0.8,1.8,2470.508,13.28,0.047,98.5
2021-08-29T04:07:03,42.805,6.029,0.035,-0.01,-0.002,100.0,103.0,100.0,13.4,1505.2,329.7,-0.7,1.8,2470.469,13.28,0.036,105.9
2021-08-29T04:10:03,42.805,6.029,0.031,-0.023,-0.013,100.0,102.0,100.0,13.4,1505.2,326.6,-0.7,1.8,2470.49,13.28,0.038,126.6
2021-08-29T04:13:03,42.805,6.029,0.031,-0.013,-0.015,99.0,102.0,102.0,13.3,1505.2,329.0,-0.7,1.8,2470.498,13.28,0.033,112.7
2021-08-29T04:16:03,42.805,6.029,0.061,0.0,0.007,101.0,103.0,100.0,13.4,1505.2,329.0,-0.8,1.8,2470.487,13.28,0.06,90.0
2021-08-29T04:19:03,42.805,6.029,0.063,-0.034,0.014,101.0,104.0,100.0,13.4,1505.2,328.6,-0.7,1.8,2470.477,13.28,0.071,118.4
2021-08-29T04:22:03,42.805,6.029,0.058,-0.009,-0.004,100.0,104.0,99.0,13.4,1505.2,325.8,-0.8,1.8,2470.465,13.28,0.058,98.8
2021-08-29T04:25:03,42.805,6.029,0.077,-0.008,0.033,101.0,104.0,101.0,13.4,1505.2,329.8,-0.8,1.8,2470.498,13.28,0.077,95.9
2021-08-29T04:28:03,42.805,6.029,0.041,-0.005,-0.018,100.0,103.0,100.0,13.3,1505.2,326.7,-0.7,1.8,2470.503,13.28,0.041,97.0
2021-08-29T04:31:03,42.805,6.029,0.061,-0.009,0.01,100.0,103.0,99.0,13.3,1505.2,327.8,-0.7,1.8,2470.481,13.28,0.061,98.4
2021-08-29T04:34:03,42.805,6.029,0.069,-0.024,0.016,100.0,102.0,99.0,13.4,1505.2,328.2,-0.7,1.8,2470.506,13.28,0.073,109.2
2021-08-29T04:37:03,42.805,6.029,0.064,-0.017,0.02,100.0,102.0,100.0,13.4,1505.2,326.6,-0.8,1.8,2470.472,13.28,0.066,104.9
2021-08-29T04:40:03,42.805,6.029,0.055,-0.014,0.025,100.0,103.0,99.0,13.4,1505.2,326.5,-0.7,1.8,2470.496,13.28,0.056,104.3
2021-08-29T04:43:03,42.805,6.029,0.078,-0.027,0.0,99.0,101.0,101.0,13.4,1505.2,328.1,-0.8,1.8,2470.478,13.28,0.082,109.1
2021-08-29T04:46:03,42.805,6.029,0.037,-0.011,-0.007,100.0,102.0,101.0,13.3,1505.2,327.6,-0.8,1.8,2470.458,13.28,0.038,106.6
2021-08-29T04:49:03,42.805,6.029,0.068,-0.045,-0.018,101.0,101.0,99.0,13.4,1505.2,329.5,-0.7,1.8,2470.45,13.28,0.081,123.5
2021-08-29T04:52:03,42.805,6.029,0.062,-0.007,0.022,101.0,103.0,99.0,13.4,1505.2,328.6,-0.8,1.8,2470.452,13.28,0.062,96.4
2021-08-29T04:55:03,42.805,6.029,0.031,-0.022,0.018,100.0,102.0,100.0,13.4,1505.2,328.9,-0.8,1.8,2470.472,13.28,0.038,125.4
2021-08-29T04:58:03,42.805,6.029,0.035,-0.019,-0.01,101.0,103.0,99.0,13.4,1505.2,326.9,-0.8,1.8,2470.453,13.28,0.039,118.5
2021-08-29T05:04:03,42.805,6.029,0.057,-0.009,0.008,100.0,101.0,100.0,13.3,1505.2,329.3,-0.8,1.8,2470.483,13.28,0.057,99.0
2021-08-29T05:07:03,42.805,6.029,0.067,-0.002,0.027,101.0,101.0,99.0,13.3,1505.2,329.4,-0.8,1.8,2470.488,13.28,0.067,91.7
2021-08-29T05:10:03,42.805,6.029,0.051,-0.023,0.0,101.0,102.0,100.0,13.4,1505.2,328.4,-0.8,1.8,2470.459,13.28,0.055,114.3
2021-08-29T05:13:03,42.805,6.029,0.056,-0.016,-0.016,101.0,101.0,100.0,13.4,1505.2,326.4,-0.7,1.8,2470.473,13.28,0.058,105.9
2021-08-29T05:16:03,42.805,6.029,0.068,-0.015,0.056,98.0,101.0,100.0,13.3,1505.2,328.5,-0.7,1.8,2470.436,13.28,0.069,102.4
2021-08-29T05:19:03,42.805,6.029,0.056,-0.021,0.003,101.0,100.0,100.0,13.4,1505.2,330.1,-0.7,1.8,2470.433,13.28,0.059,110.6
2021-08-29T05:22:03,42.805,6.029,0.057,-0.025,-0.004,99.0,101.0,100.0,13.4,1505.2,327.1,-0.7,1.8,2470.474,13.28,0.062,113.7
2021-08-29T05:25:03,42.805,6.029,0.053,-0.013,0.007,99.0,102.0,100.0,13.4,1505.2,327.4,-0.7,1.9,2470.472,13.28,0.054,103.8
2021-08-29T05:28:03,42.805,6.029,0.068,-0.029,0.014,99.0,101.0,100.0,13.4,1505.2,330.5,-0.8,1.8,2470.438,13.28,0.073,113.1
2021-08-29T05:31:03,42.805,6.029,0.084,-0.008,0.008,100.0,102.0,101.0,13.4,1505.2,328.4,-0.7,1.8,2470.469,13.28,0.084,95.4
2021-08-29T05:34:03,42.805,6.029,0.054,-0.02,0.003,101.0,101.0,100.0,13.4,1505.2,327.2,-0.8,1.8,2470.433,13.28,0.057,110.3
2021-08-29T05:37:03,42.805,6.029,0.084,-0.043,0.002,100.0,102.0,99.0,13.3,1505.2,329.1,-0.8,1.8,2470.447,13.28,0.094,117.1
2021-08-29T05:40:03,42.805,6.029,0.049,-0.024,0.009,100.0,104.0,100.0,13.4,1505.2,328.7,-0.7,1.9,2470.447,13.28,0.054,116.1
2021-08-29T05:43:03,42.805,6.029,0.047,-0.024,0.008,98.0,103.0,100.0,13.4,1505.2,328.8,-0.7,1.8,2470.423,13.28,0.052,117.0
2021-08-29T05:46:03,42.805,6.029,0.087,-0.014,0.016,100.0,102.0,100.0,13.4,1505.2,325.4,-0.7,1.8,2470.465,13.28,0.088,99.1
2021-08-29T05:49:03,42.805,6.029,0.054,-0.018,0.035,101.0,103.0,100.0,13.4,1505.2,331.5,-0.8,1.8,2470.427,13.28,0.056,108.4
2021-08-29T05:52:03,42.805,6.029,0.056,-0.029,0.017,100.0,100.0,100.0,13.4,1505.2,326.9,-0.7,1.8,2470.445,13.28,0.063,117.4
2021-08-29T05:55:03,42.805,6.029,0.097,-0.033,0.009,99.0,103.0,99.0,13.3,1505.2,324.8,-0.7,1.8,2470.449,13.28,0.102,108.8
2021-08-29T05:58:03,42.805,6.029,0.053,-0.046,-0.031,101.0,100.0,100.0,13.4,1505.2,326.8,-0.8,1.8,2470.394,13.28,0.07,131.0
2021-08-29T06:04:03,42.805,6.029,0.077,-0.016,0.018,100.0,101.0,100.0,13.3,1505.2,328.6,-0.8,1.8,2470.474,13.28,0.078,101.7
2021-08-29T06:07:03,42.805,6.029,0.056,-0.029,0.003,101.0,102.0,100.0,13.4,1505.2,327.9,-0.7,1.8,2470.486,13.28,0.063,117.4
2021-08-29T06:10:03,42.805,6.029,0.038,-0.014,0.029,100.0,101.0,100.0,13.4,1505.2,326.5,-0.7,1.8,2470.488,13.28,0.04,110.2
2021-08-29T06:13:03,42.805,6.029,0.076,-0.023,0.017,100.0,101.0,100.0,13.3,1505.2,326.4,-0.7,1.8,2470.441,13.28,0.079,106.8
2021-08-29T06:16:03,42.805,6.029,0.066,-0.001,0.019,100.0,104.0,98.0,13.4,1505.2,328.7,-0.8,1.8,2470.469,13.28,0.066,90.9
2021-08-29T06:19:03,42.805,6.029,0.067,-0.017,0.018,98.0,102.0,100.0,13.4,1505.2,327.7,-0.7,1.8,2470.44,13.28,0.069,104.2
2021-08-29T06:22:03,42.805,6.029,0.051,-0.025,0.023,101.0,101.0,99.0,13.3,1505.2,326.8,-0.7,1.8,2470.445,13.28,0.056,116.1
2021-08-29T06:25:03,42.805,6.029,0.054,-0.025,-0.029,100.0,100.0,100.0,13.4,1505.2,326.1,-0.7,1.8,2470.445,13.28,0.059,114.8
2021-08-29T06:28:03,42.805,6.029,0.048,-0.025,-0.019,100.0,102.0,100.0,13.4,1505.2,331.1,-0.8,1.8,2470.471,13.28,0.054,117.5
2021-08-29T06:31:03,42.805,6.029,0.052,-0.029,-0.003,102.0,101.0,100.0,13.4,1505.2,328.6,-0.7,1.8,2470.435,13.28,0.059,119.1
2021-08-29T06:34:03,42.805,6.029,0.058,-0.001,0.02,100.0,103.0,100.0,13.3,1505.2,329.7,-0.7,1.8,2470.458,13.28,0.058,91.0
2021-08-29T06:37:03,42.805,6.029,0.063,-0.002,0.019,100.0,102.0,101.0,13.4,1505.2,326.2,-0.7,1.8,2470.437,13.28,0.063,91.8
2021-08-29T06:40:03,42.805,6.029,0.083,-0.036,0.01,100.0,101.0,100.0,13.4,1505.2,327.2,-0.8,1.8,2470.448,13.28,0.09,113.4
2021-08-29T06:43:03,42.805,6.029,0.064,-0.015,0.0,100.0,101.0,100.0,13.4,1505.2,329.8,-0.8,1.8,2470.42,13.28,0.065,103.2
2021-08-29T06:46:03,42.805,6.029,0.045,-0.008,-0.013,99.0,102.0,100.0,13.4,1505.2,327.2,-0.7,1.8,2470.436,13.28,0.045,100.1
2021-08-29T06:49:03,42.805,6.029,0.05,-0.022,-0.02,99.0,102.0,100.0,13.4,1505.2,327.8,-0.7,1.8,2470.45,13.28,0.054,113.7
2021-08-29T06:52:03,42.805,6.029,0.068,-0.021,0.016,100.0,102.0,100.0,13.4,1505.2,325.3,-0.8,1.8,2470.49,13.28,0.071,107.2
2021-08-29T06:55:03,42.805,6.029,0.066,-0.034,0.02,100.0,102.0,100.0,13.4,1505.2,331.1,-0.7,1.8,2470.474,13.28,0.074,117.3
2021-08-29T06:58:03,42.805,6.029,0.027,0.004,0.005,100.0,102.0,100.0,13.4,1505.2,328.3,-0.7,1.8,2470.465,13.28,0.027,81.6
2021-08-29T07:04:03,42.805,6.029,0.028,-0.003,0.016,101.0,100.0,100.0,13.4,1505.2,331.3,-0.8,1.9,2470.455,13.28,0.028,96.1
2021-08-29T07:07:03,42.805,6.029,0.062,0.001,0.011,100.0,101.0,100.0,13.4,1505.2,325.7,-0.8,1.8,2470.458,13.28,0.062,89.1
2021-08-29T07:10:03,42.805,6.029,0.072,-0.026,0.006,100.0,101.0,100.0,13.4,1505.2,328.8,-0.7,1.8,2470.495,13.28,0.076,109.9
2021-08-29T07:13:03,42.805,6.029,0.032,-0.035,-0.026,101.0,102.0,99.0,13.4,1505.2,327.2,-0.7,1.8,2470.49,13.28,0.047,137.6
2021-08-29T07:16:03,42.805,6.029,0.061,-0.001,0.014,102.0,100.0,100.0,13.4,1505.2,326.5,-0.8,1.8,2470.48,13.28,0.061,90.9
2021-08-29T07:19:03,42.805,6.029,0.061,-0.004,0.037,100.0,102.0,100.0,13.4,1505.2,326.7,-0.8,1.8,2470.474,13.28,0.061,93.7
2021-08-29T07:22:03,42.805,6.029,0.034,0.001,-0.013,99.0,102.0,100.0,13.3,1505.2,328.0,-0.8,1.8,2470.421,13.28,0.034,88.3
2021-08-29T07:25:03,42.805,6.029,0.056,-0.026,-0.005,100.0,100.0,101.0,13.4,1505.2,328.9,-0.8,1.8,2470.449,13.28,0.061,114.9
2021-08-29T07:28:03,42.805,6.029,0.06,-0.031,0.018,100.0,101.0,100.0,13.4,1505.2,326.8,-0.7,1.8,2470.46,13.28,0.067,117.3
2021-08-29T07:31:03,42.805,6.029,0.06,-0.016,0.017,101.0,101.0,100.0,13.3,1505.2,331.1,-0.7,1.8,2470.475,13.28,0.062,104.9
2021-08-29T07:34:03,42.805,6.029,0.065,-0.014,0.004,98.0,101.0,100.0,13.3,1505.2,328.3,-0.8,1.8,2470.454,13.28,0.066,102.2
2021-08-29T07:37:03,42.805,6.029,0.072,-0.015,0.017,100.0,101.0,100.0,13.3,1505.2,328.4,-0.8,1.8,2470.464,13.28,0.073,101.8
2021-08-29T07:40:03,42.805,6.029,0.053,-0.012,0.027,101.0,102.0,100.0,13.4,1505.2,329.9,-0.8,1.8,2470.468,13.28,0.054,102.8
2021-08-29T07:43:03,42.805,6.029,0.069,-0.007,0.018,99.0,101.0,100.0,13.3,1505.2,326.4,-0.8,1.8,2470.516,13.28,0.069,95.8
2021-08-29T07:46:03,42.805,6.029,0.053,-0.034,0.001,101.0,99.0,100.0,13.4,1505.2,329.1,-0.8,1.8,2470.481,13.28,0.062,122.7
2021-08-29T07:49:03,42.805,6.029,0.069,-0.002,0.019,99.0,102.0,100.0,13.4,1505.2,325.2,-0.8,1.8,2470.479,13.28,0.069,91.7
2021-08-29T07:52:03,42.805,6.029,0.066,-0.014,0.02,100.0,103.0,99.0,13.3,1505.2,330.4,-0.7,1.8,2470.498,13.28,0.067,102.0
2021-08-29T07:55:03,42.805,6.029,0.044,-0.04,-0.022,101.0,101.0,100.0,13.3,1505.2,328.5,-0.8,1.8,2470.475,13.28,0.059,132.3
2021-08-29T07:58:03,42.805,6.029,0.067,-0.014,0.01,100.0,103.0,99.0,13.3,1505.2,330.5,-0.8,1.8,2470.492,13.28,0.068,101.8
2021-08-29T08:04:03,42.805,6.029,0.061,-0.027,-0.01,100.0,101.0,100.0,13.3,1505.2,325.7,-0.8,1.9,2470.487,13.28,0.066,113.9
2021-08-29T08:07:03,42.805,6.029,0.04,-0.016,0.003,100.0,102.0,99.0,13.4,1505.2,329.4,-0.7,1.8,2470.509,13.28,0.043,111.8
2021-08-29T08:10:03,42.805,6.029,0.055,-0.01,-0.011,99.0,101.0,101.0,13.3,1505.2,328.7,-0.7,1.9,2470.514,13.28,0.055,100.3
2021-08-29T08:13:03,42.805,6.029,0.062,-0.031,-0.005,100.0,101.0,100.0,13.4,1505.2,329.1,-0.8,1.8,2470.498,13.28,0.069,116.6
2021-08-29T08:16:03,42.805,6.029,0.087,-0.008,0.02,100.0,100.0,100.0,13.4,1505.2,325.5,-0.8,1.8,2470.53,13.28,0.087,95.3
2021-08-29T08:19:03,42.805,6.029,0.057,-0.006,-0.021,101.0,103.0,99.0,13.4,1505.2,329.8,-0.8,1.9,2470.5,13.28,0.057,96.0
2021-08-29T08:22:03,42.805,6.029,0.059,-0.021,-0.024,99.0,103.0,100.0,13.4,1505.2,330.3,-0.8,1.8,2470.48,13.28,0.062,109.6
2021-08-29T08:25:03,42.805,6.029,0.064,-0.024,-0.005,100.0,100.0,100.0,13.3,1505.2,327.0,-0.8,1.8,2470.488,13.28,0.068,110.6
2021-08-29T08:28:03,42.805,6.029,0.039,-0.045,-0.045,101.0,100.0,100.0,13.4,1505.2,326.7,-0.7,1.8,2470.519,13.28,0.059,139.1
2021-08-29T08:31:03,42.805,6.029,0.072,-0.032,-0.022,98.0,100.0,101.0,13.4,1505.2,326.2,-0.8,1.8,2470.499,13.28,0.078,114.0
2021-08-29T08:34:03,42.805,6.029,0.07,0.0,0.008,99.0,103.0,101.0,13.4,1505.2,328.0,-0.7,1.8,2470.528,13.28,0.069,90.0
2021-08-29T08:37:03,42.805,6.029,0.066,-0.008,0.034,101.0,102.0,99.0,13.3,1505.2,327.0,-0.7,1.9,2470.512,13.28,0.066,96.9
2021-08-29T08:40:03,42.805,6.029,0.061,-0.024,-0.032,101.0,100.0,101.0,13.3,1505.2,327.9,-0.7,1.8,2470.535,13.28,0.065,111.5
2021-08-29T08:43:03,42.805,6.029,0.028,-0.032,-0.006,99.0,104.0,100.0,13.3,1505.2,329.5,-0.7,1.8,2470.514,13.28,0.042,138.8
2021-08-29T08:46:03,42.805,6.029,0.066,-0.017,0.021,100.0,101.0,99.0,13.4,1505.2,325.4,-0.8,1.8,2470.55,13.28,0.068,104.4
2021-08-29T08:49:03,42.805,6.029,0.055,-0.009,0.011,101.0,100.0,100.0,13.3,1505.2,329.1,-0.7,1.8,2470.496,13.28,0.055,99.3
2021-08-29T08:52:03,42.805,6.029,0.037,-0.002,-0.011,99.0,103.0,100.0,13.3,1505.2,326.1,-0.8,1.8,2470.552,13.28,0.037,93.1
2021-08-29T08:55:03,42.805,6.029,0.052,-0.012,-0.023,101.0,100.0,100.0,13.4,1505.2,328.8,-0.8,1.8,2470.515,13.28,0.053,103.0
2021-08-29T08:58:03,42.805,6.029,0.079,-0.012,0.025,100.0,102.0,99.0,13.4,1505.2,327.3,-0.8,1.8,2470.549,13.28,0.079,98.6
2021-08-29T09:04:03,42.805,6.029,0.041,-0.02,0.004,100.0,101.0,100.0,13.3,1505.2,328.5,-0.8,1.8,2470.534,13.28,0.045,116.0
2021-08-29T09:07:03,42.805,6.029,0.064,-0.032,0.017,99.0,101.0,100.0,13.4,1505.2,329.3,-0.8,1.8,2470.581,13.28,0.071,116.6
2021-08-29T09:10:03,42.805,6.029,0.075,-0.017,0.006,98.0,101.0,100.0,13.4,1505.2,326.3,-0.8,1.8,2470.594,13.28,0.076,102.8
2021-08-29T09:13:03,42.805,6.029,0.053,-0.013,-0.009,100.0,100.0,101.0,13.4,1505.2,326.0,-0.8,1.8,2470.548,13.28,0.054,103.8
2021-08-29T09:16:03,42.805,6.029,0.051,-0.037,-0.011,102.0,99.0,100.0,13.4,1505.2,330.9,-0.8,1.8,2470.522,13.28,0.063,126.0
2021-08-29T09:19:03,42.805,6.029,0.044,-0.033,0.002,99.0,101.0,100.0,13.3,1505.2,329.9,-0.8,1.8,2470.543,13.28,0.055,126.9
2021-08-29T09:22:03,42.805,6.029,0.048,-0.011,0.009,99.0,99.0,100.0,13.4,1505.2,328.5,-0.8,1.8,2470.526,13.28,0.049,102.9
2021-08-29T09:25:03,42.805,6.029,0.046,-0.019,-0.001,100.0,103.0,99.0,13.4,1505.2,329.8,-0.8,1.8,2470.542,13.28,0.049,112.4
2021-08-29T09:28:03,42.805,6.029,0.027,-0.006,-0.006,99.0,100.0,100.0,13.4,1505.2,327.6,-0.7,1.8,2470.543,13.28,0.027,102.5
2021-08-29T09:31:03,42.805,6.029,0.07,-0.021,0.017,98.0,101.0,101.0,13.4,1505.2,327.4,-0.8,1.8,2470.578,13.28,0.073,106.7
2021-08-29T09:34:03,42.805,6.029,0.044,-0.016,-0.002,98.0,103.0,101.0,13.4,1505.2,328.6,-0.8,1.8,2470.591,13.28,0.046,110.0
2021-08-29T09:37:03,42.805,6.029,0.054,-0.01,-0.013,100.0,100.0,100.0,13.4,1505.2,325.7,-0.7,1.8,2470.584,13.28,0.054,100.5
2021-08-29T09:40:03,42.805,6.029,0.044,-0.015,-0.004,100.0,101.0,100.0,13.4,1505.2,325.3,-0.7,1.9,2470.563,13.28,0.046,108.8
2021-08-29T09:43:03,42.805,6.029,0.042,-0.021,-0.03,101.0,101.0,99.0,13.4,1505.2,329.4,-0.7,1.8,2470.573,13.28,0.046,116.6
2021-08-29T09:46:03,42.805,6.029,0.059,-0.008,0.001,100.0,100.0,100.0,13.4,1505.2,331.5,-0.7,1.8,2470.552,13.28,0.059,97.7
2021-08-29T09:49:03,42.805,6.029,0.031,-0.009,-0.026,101.0,102.0,99.0,13.4,1505.2,327.4,-0.7,1.8,2470.566,13.28,0.032,106.2
2021-08-29T09:52:03,42.805,6.029,0.055,-0.021,-0.027,101.0,101.0,98.0,13.4,1505.2,325.8,-0.7,1.8,2470.578,13.28,0.058,110.9
2021-08-29T09:55:03,42.805,6.029,0.059,-0.044,-0.006,100.0,100.0,99.0,13.4,1505.2,329.9,-0.7,1.8,2470.564,13.28,0.073,126.7
2021-08-29T09:58:03,42.805,6.029,0.053,-0.016,0.014,100.0,99.0,101.0,13.4,1505.2,326.7,-0.7,1.8,2470.551,13.28,0.055,106.8
2021-08-29T10:04:03,42.805,6.029,0.074,-0.019,-0.004,100.0,100.0,100.0,13.3,1505.2,327.3,-0.7,1.8,2470.589,13.28,0.076,104.4